Погода в Верхней Нечаевке

Россия / Тамбовская область     52°59′49″N   42°45′56″E
темп.,
°C
ветер,
м/с
пор.,
м/с
влажн.,
%
обл.,
%
осадки,
мм/ч
давл.,
гПа
погр.,
м
9 мая, вс
вс900:00+12ююв51489100 1.6 1007564
03:00+11ю51196100 1.8 1007347
06:00+11ююв3798100 0.1 1006246
09:00+11ююв3799100 4.6 1006391
12:00+8зюз6993100 3.1 1009459
15:00+7зюз4791100 6.8 1011492
18:00+8зюз5792100 0.2 1013548
21:00+6сз5895100 0.2 1015439
10 мая, пн
пн1000:00+5сз5995100 0.0 1016478
03:00+5ссз5996100 0.0 1017542
06:00+6с61297100 1.2 1018532
09:00+6с81496100 3.6 1020575
12:00+7с91695100 1.7 1020521
15:00+9ссв91591100 2.0 1021606
18:00+9ссв91891100 0.1 1020549
21:00+9ссв92091100 0.1 1021478
11 мая, вт
вт1100:00+9св8199081 0.0 1020485
03:00+10св92091100 0.1 1020459
06:00+10св81790100 0.0 1021443
09:00+13всв6128896 0.1 1022621
12:00+15юв5780100 0.1 1023600
15:00+17юв576995 0.2 10241098
18:00+16ююв2275100 0.3 102446
21:00+11сз1194100 3.3 102549
12 мая, ср
ср1200:00+11всв41098100 5.1 1025452
03:00+11в2598100 5.7 1023269
06:00+12в2998100 5.1 1023635
09:00+13в2794100 5.7 1023358
12:00+14в2691100 1.4 1023169
15:00+17вюв7107287 1.5 1022963
18:00+15в51280100 0.0 1022525
21:00+14вюв51279100 0.0 1022451
13 мая, чт
чт1300:00+14в51279100 0.1 1022337
03:00+13в51288100 0.1 1021360
06:00+13в51283100 0.0 1020318
09:00+13вюв51192100 3.3 1020502
12:00+14вюв4986100 0.4 1020466
15:00+19юв477383 0.4 10191115
18:00+19юв46800 0.5 1019412
21:00+15юв23895 0.6 101923